sat.trackr.live / text

‹ back to catalog

STARLINK-5688

NORAD 55479 · 2023-015AG

PAYLOAD ACTIVE UNKNOWN

§ Identity

Operator
Country
US
Launch date
2023-02-02
Launch site
AFETR
Launch vehicle
Mass (kg)
RCS (m²)

Purposes: comms

External: N2YO · Heavens-Above · Gunter

§ Orbital elements

Epoch: 2026-09-20T19:22:04.776672Z

Period
94.27 min
Inclination
43.0029°
Eccentricity
0.0001050
Mean motion
15.27575824 rev/d
Perigee alt
482.3 km
Apogee alt
483.8 km
Semi-major
6,861.2 km
B*
1.6977e-6
RAAN
299.6861°
Arg perigee
286.7819°
Mean anomaly
73.2918°
Rev number
20,064

§ Raw data

STARLINK-56881 55479U 23015AG  26263.80699973 -.00000215  00000+0  16977-5 0  99942 55479  43.0029 299.6861 0001050 286.7819  73.2918 15.27575824200646

JSON: /api/v1/satellites/55479 · /tle

For live sub-satellite position, see the globe view (requires WebGL).

§ Visibility from observer

Set your observer location to see the next 7 days of passes ≥ 10°. The values pass through the URL so the page stays shareable.

No JS? Fill the form by hand. The geolocation button needs JavaScript.